Location: Bailleul
(50.3375°N, 2.8513°E)
Time: 08:59:56
(UTC+00:00)

Cosmos 2016 Rocket - Pass Details

Date: 24 October 2021
Orbit: 946 x 1000 km, 83.0° (Epoch: 01 December)

Event Time Altitude Azimuth Distance (km) Brightness Sun altitude
Rises 05:37:48 0° 355° (N) 3,632 6.8 -8.3°
Reaches altitude 10° 05:40:35 10° 5° (N) 2,681 6.3 -7.9°
Maximum altitude 05:46:04 34° 68° (ENE) 1,529 5.8 -7.0°
Drops below altitude 10° 05:51:32 10° 132° (SE) 2,673 7.4 -6.1°
Sets 05:54:17 0° 142° (SE) 3,619 7.9 -5.7°
